Regional Weather Roundup
Issued by NWS

Home | Current Version | Previous Version | Graphics & Text | Print | Product List | Glossary On
Versions: 1 2 3 4 5 6 7 8 9 10 11 12 13 14 15 16 17 18 19 20 21 22 23 24 25 26 27 28 29 30 31 32 33 34 35 36 37 38 39 40 41 42 43 44 45 46 47 48 49 50
000
ASUS43 KDMX 220707
RWRIA

WEATHER ROUNDUP FOR IOWA
NATIONAL WEATHER SERVICE DES MOINES IA
100 AM CST MON DEC 22 2014

NOTE: "FAIR" INDICATES FEW OR NO CLOUDS BELOW 12,000 FEET WITH NO
SIGNIFICANT WEATHER AND/OR OBSTRUCTIONS TO VISIBILITY.

* - THESE STATIONS ARE NOT NWS STATIONS...THUS NOT UNDER NWS
QUALITY CONTROL.  THEY ALSO DO NOT REPORT WEATHER SUCH
AS PRECIPITATION OR FOG.

IAZ001>003-012>014-020>022-031>034-043>046-220800-
   NORTHWEST IOWA

CITY           SKY/WX    TMP DP  RH WIND       PRES   REMARKS
CARROLL *      CLOUDY    41  41 100 SE13      29.65F
CHEROKEE *     CLOUDY    39  39 100 S15       29.60F FOG     WCI  31
DENISON *      CLOUDY    41  41 100 S15G23    29.60F FOG
LE MARS *      CLOUDY    41  41 100 S17G24    29.57F FOG
ORANGE CITY *  DRIZZLE   41  39  93 S10       29.57F
SHELDON *      CLOUDY    39  39 100 S17       29.57F FOG     WCI  30
SIOUX CITY     LGT RAIN  42  40  92 SE12      29.58F FOG
SPENCER        CLOUDY    40  38  93 S17       29.61F FOG     WCI  31
STORM LAKE *   CLOUDY    39  39 100 S17       29.62F FOG     WCI  30
$$

IAZ055>058-069>071-079>083-090>094-220800-
   SOUTHWEST IOWA

CITY           SKY/WX    TMP DP  RH WIND       PRES   REMARKS
ATLANTIC *     CLOUDY    43  43 100 S14G21    29.65F FOG
AUDUBON *      DRIZZLE   41  37  87 S12G20    29.66F
CLARINDA *     CLOUDY    43  43 100 S14       29.68F FOG
COUNCIL BLFS * CLOUDY    43  43 100 S17       29.61F FOG
CRESTON *      CLOUDY    39  39 100 S14G24    29.70F FOG     WCI  31
HARLAN  *      CLOUDY    43  43 100 S17       29.66F FOG
LAMONI         CLOUDY    39  38  96 S12G20    29.73F FOG     WCI  32
RED OAK *      CLOUDY    43  43 100 S14G21    29.66F FOG
SHENANDOAH *   CLOUDY    43  43 100 S16G24    29.66F FOG
$$

IAZ047>049-059>061-072>074-084-220800-
   CENTRAL IOWA

CITY           SKY/WX    TMP DP  RH WIND       PRES   REMARKS
AMES           RAIN      40  38  93 SE14G24   29.72F FOG     WCI  32
ANKENY *       LGT RAIN  41  41 100 S14       29.73F
CHARITON *     CLOUDY    41  37  87 S14G21    29.75F
DES MOINES     LGT RAIN  42  39  89 S15       29.73F FOG
GRINNELL*      CLOUDY    39  37  93 SE14      29.77F WCI  31
KNOXVILLE *    CLOUDY    41  37  87 S13       29.74F
MARSHALLTOWN   CLOUDY    39  37  92 SE13      29.75F FOG     WCI  31
PELLA *        CLOUDY    41  37  87 S10       29.78F
PERRY *        CLOUDY    41  41 100 S16       29.69F FOG
$$

IAZ004>006-015-016-023>025-035-036-220800-
   NORTH CENTRAL IOWA

CITY           SKY/WX    TMP DP  RH WIND       PRES   REMARKS
ALGONA *       CLOUDY    39  39 100 S17G23    29.67F FOG     WCI  30
CLARION *      MIX PCPN  39  39 100 S17       29.70F WCI  30
ESTHERVILLE    CLOUDY    38  37  97 S18G28    29.63F FOG     WCI  28
FORT DODGE *   CLOUDY    39  37  93 S10G21    29.69F WCI  32
MASON CITY     LGT RAIN  38  37  97 SE15      29.73F FOG     WCI  29
FOREST CITY *  CLOUDY    37  36  93 SE16      29.70F WCI  28
IOWA FALLS *   CLOUDY    39  37  93 SE16      29.74F FOG     WCI  30
$$

IAZ007>011-017>019-026>030-037>042-050>054-066-220800-
   NORTHEAST IOWA

CITY           SKY/WX    TMP DP  RH WIND       PRES   REMARKS
CEDAR RAPIDS   CLOUDY    36  35  96 S13       29.82F FOG     WCI  27
CHARLES CITY * CLOUDY    37  37 100 SE16      29.76F FOG     WCI  28
CLINTON *      CLOUDY    34  30  86 SE13      29.92F WCI  25
DECORAH *      CLOUDY    36  36 100 S14       29.79F FOG     WCI  27
DUBUQUE        CLOUDY    33  30  88 S16       29.86F FOG     WCI  23
MONTICELLO *   CLOUDY    36  36 100 SE13      29.85F WCI  27
OELWEIN *      CLOUDY    36  36 100 SE16      29.81S FOG     WCI  26
WATERLOO       LGT RAIN  37  36  96 S16       29.79F WCI  28
$$

IAZ064-065-067-068-078-220800-
   EAST CENTRAL IOWA

CITY           SKY/WX    TMP DP  RH WIND       PRES   REMARKS
DAVENPORT      CLOUDY    35  30  82 SE17G24   29.89F WCI  25
IOWA CITY      CLOUDY    37  33  85 SE10      29.86F WCI  30
MT. PLEASANT * CLOUDY    37  34  87 SE13      29.85F WCI  29
MUSCATINE *    CLOUDY    37  32  81 SE8G14    29.87F WCI  31
QUAD CITIES    CLOUDY    35  31  85 SE12      29.88F WCI  27
$$

IAZ062-063-075>077-085>089-095>099-220800-
   SOUTHEAST IOWA

CITY           SKY/WX    TMP DP  RH WIND       PRES   REMARKS
BURLINGTON     CLOUDY    39  32  76 S5        29.87F
FAIRFIELD *    CLOUDY    39  36  87 SE13      29.82F WCI  32
FORT MADISON * CLOUDY    39  36  87 SE8       29.87F WCI  34
KEOKUK *       CLOUDY    41  34  75 SE10      29.85F
OSKALOOSA *    CLOUDY    39  37  93 SE13      29.80F WCI  32
CENTERVILLE *  CLOUDY    39  39 100 SE10      29.79F WCI  32
OTTUMWA        CLOUDY    39  36  89 S14       29.79F WCI  31
WASHINGTON *   CLOUDY    37  37 100 S13       29.84F WCI  29
$$

ABBREVIATIONS USED IN REMARKS
   TC - TEMPERATURES IN CELSIUS
  WCI - WIND CHILL INDEX
   HX - HEAT INDEX
  VSB - VISIBILITY
$$




USA.gov is the U.S. government's official web portal to all federal, state and local government web resources and services.